�������l�o���
Date,Time,MP-1(��Sv/h),MP-2(��Sv/h),MP-3(��Sv/h),MP-4(��Sv/h),MP-5(��Sv/h),MP-6(��Sv/h),MP-7(��Sv/h),����,����(m/s),���J
2022/07/07,00:00,0.150,0.139,0.222,0.213,0.211,0.116,0.078,�k�k��,7.3,�L
2022/07/07,00:10,0.149,0.138,0.221,0.211,0.213,0.117,0.077,�k,6.7,�L
2022/07/07,00:20,0.150,0.140,0.221,0.214,0.212,0.117,0.077,�k�k��,7.7,�L
2022/07/07,00:30,0.150,0.138,0.221,0.211,0.211,0.117,0.076,�k�k��,6.8,�L
2022/07/07,00:40,0.149,0.140,0.221,0.211,0.213,0.116,0.078,�k�k��,7.0,�L
2022/07/07,00:50,0.150,0.138,0.222,0.213,0.210,0.116,0.077,�k�k��,7.7,�L
2022/07/07,01:00,0.149,0.139,0.221,0.211,0.214,0.117,0.077,�k�k��,6.0,�L
2022/07/07,01:10,0.150,0.140,0.222,0.214,0.213,0.116,0.077,�k�k��,7.1,�L
2022/07/07,01:20,0.149,0.138,0.222,0.212,0.211,0.115,0.077,�k�k��,7.9,�L
2022/07/07,01:30,0.149,0.139,0.221,0.212,0.213,0.117,0.077,�k�k��,6.9,�L
2022/07/07,01:40,0.149,0.137,0.222,0.213,0.210,0.115,0.076,�k��,7.9,�L
2022/07/07,01:50,0.149,0.139,0.221,0.210,0.212,0.116,0.076,�k��,7.4,�L
2022/07/07,02:00,0.151,0.139,0.222,0.213,0.213,0.117,0.076,�k�k��,7.2,�L
2022/07/07,02:10,0.149,0.139,0.221,0.211,0.212,0.116,0.077,�k�k��,7.3,�L
2022/07/07,02:20,0.150,0.138,0.223,0.213,0.213,0.117,0.076,�k�k��,7.7,�L
2022/07/07,02:30,0.150,0.139,0.220,0.212,0.212,0.115,0.077,�k�k��,6.8,�L
2022/07/07,02:40,0.149,0.140,0.221,0.212,0.213,0.116,0.077,�k�k��,6.7,�L
2022/07/07,02:50,0.150,0.138,0.221,0.212,0.210,0.116,0.076,�k�k��,6.3,�L
2022/07/07,03:00,0.148,0.138,0.220,0.210,0.212,0.116,0.077,�k�k��,5.4,�L
2022/07/07,03:10,0.150,0.138,0.224,0.213,0.212,0.116,0.076,�k�k��,6.3,�L
2022/07/07,03:20,0.150,0.138,0.220,0.211,0.211,0.116,0.076,�k�k��,6.3,�L
2022/07/07,03:30,0.148,0.137,0.222,0.212,0.212,0.116,0.076,�k�k��,6.6,�L
2022/07/07,03:40,0.150,0.138,0.221,0.213,0.211,0.116,0.076,�k�k��,5.7,�L
2022/07/07,03:50,0.149,0.138,0.221,0.212,0.213,0.115,0.077,�k�k��,6.0,�L
2022/07/07,04:00,0.149,0.138,0.220,0.213,0.213,0.116,0.076,�k�k��,5.9,�L
2022/07/07,04:10,0.149,0.140,0.220,0.211,0.210,0.116,0.076,�k�k��,5.3,�L
2022/07/07,04:20,0.148,0.138,0.222,0.213,0.213,0.116,0.076,�k�k��,5.5,�L
2022/07/07,04:30,0.150,0.139,0.220,0.212,0.211,0.117,0.076,�k�k��,5.9,�L
2022/07/07,04:40,0.148,0.139,0.222,0.211,0.212,0.118,0.077,�k�k��,5.7,�L
2022/07/07,04:50,0.149,0.138,0.221,0.213,0.213,0.116,0.076,�k�k��,5.1,�L
2022/07/07,05:00,0.149,0.139,0.220,0.211,0.211,0.117,0.077,�k�k��,5.2,�L
2022/07/07,05:10,0.149,0.139,0.221,0.213,0.213,0.116,0.077,�k,6.3,�L
2022/07/07,05:20,0.150,0.139,0.219,0.212,0.213,0.117,0.076,�k,7.0,�L
2022/07/07,05:30,0.149,0.138,0.222,0.211,0.210,0.117,0.077,�k,6.6,�L
2022/07/07,05:40,0.149,0.139,0.219,0.213,0.213,0.116,0.077,�k,6.9,�L
2022/07/07,05:50,0.149,0.139,0.221,0.211,0.211,0.117,0.077,�k,6.6,�L
2022/07/07,06:00,0.148,0.139,0.221,0.213,0.213,0.118,0.077,�k,7.3,�L
2022/07/07,06:10,0.149,0.139,0.221,0.212,0.213,0.116,0.077,�k,6.9,�L
2022/07/07,06:20,0.148,0.138,0.222,0.212,0.211,0.118,0.077,�k,6.7,�L
2022/07/07,06:30,0.150,0.139,0.220,0.213,0.213,0.116,0.076,�k,5.5,�L
2022/07/07,06:40,0.149,0.137,0.221,0.212,0.212,0.116,0.078,�k,6.2,�L
2022/07/07,06:50,0.149,0.139,0.220,0.213,0.213,0.118,0.076,�k,5.5,�L
2022/07/07,07:00,0.150,0.139,0.223,0.213,0.214,0.116,0.077,�k,5.4,�L
2022/07/07,07:10,0.149,0.137,0.222,0.211,0.212,0.117,0.077,�k�k��,4.6,�L
2022/07/07,07:20,0.149,0.139,0.221,0.213,0.214,0.117,0.076,�k�k��,4.9,�L
2022/07/07,07:30,0.149,0.138,0.222,0.212,0.212,0.116,0.077,�k�k��,4.4,�L
2022/07/07,07:40,0.148,0.139,0.221,0.212,0.211,0.117,0.077,�k,4.2,�L
2022/07/07,07:50,0.149,0.140,0.223,0.213,0.214,0.117,0.076,�k,5.6,�L
2022/07/07,08:00,0.149,0.138,0.221,0.211,0.212,0.117,0.077,�k,5.4,�L
2022/07/07,08:10,0.149,0.138,0.222,0.214,0.212,0.117,0.076,�k,6.2,�L
2022/07/07,08:20,0.149,0.138,0.223,0.211,0.213,0.116,0.077,�k,7.5,�L
2022/07/07,08:30,0.148,0.139,0.220,0.212,0.209,0.116,0.077,�k�k��,6.1,�L
2022/07/07,08:40,0.149,0.139,0.222,0.213,0.214,0.117,0.075,�k�k��,7.4,�L
2022/07/07,08:50,0.149,0.138,0.220,0.211,0.214,0.116,0.076,�k�k��,7.7,�L
2022/07/07,09:00,0.148,0.139,0.220,0.213,0.210,0.117,0.076,�k,6.6,�L
2022/07/07,09:10,0.149,0.137,0.222,0.212,0.213,0.117,0.076,�k�k��,4.5,�L
2022/07/07,09:20,0.148,0.139,0.219,0.211,0.211,0.117,0.076,�k,6.2,�L
2022/07/07,09:30,0.149,0.138,0.221,0.211,0.209,0.116,0.075,�k,5.2,�L
2022/07/07,09:40,0.150,0.137,0.221,0.211,0.214,0.116,0.076,�k�k��,6.3,�L
2022/07/07,09:50,0.147,0.139,0.219,0.212,0.212,0.116,0.076,�k�k��,6.7,�L
2022/07/07,10:00,0.148,0.138,0.221,0.211,0.210,0.116,0.075,�k�k��,5.9,�L
2022/07/07,10:10,0.149,0.138,0.220,0.209,0.212,0.117,0.076,�k,6.0,�L
2022/07/07,10:20,0.146,0.139,0.220,0.211,0.211,0.116,0.076,�k�k��,5.5,�L
2022/07/07,10:30,0.149,0.137,0.219,0.212,0.209,0.116,0.075,�k�k��,5.5,�L
2022/07/07,10:40,0.149,0.138,0.219,0.210,0.213,0.116,0.075,�k,4.4,�L
2022/07/07,10:50,0.147,0.139,0.219,0.211,0.212,0.115,0.076,�k,4.5,�L
2022/07/07,11:00,0.149,0.137,0.221,0.211,0.209,0.116,0.076,�k,5.4,�L
2022/07/07,11:10,0.148,0.138,0.219,0.210,0.212,0.116,0.075,�k,5.6,�L
2022/07/07,11:20,0.148,0.138,0.220,0.211,0.212,0.117,0.076,�k,7.0,�L
2022/07/07,11:30,0.150,0.137,0.221,0.212,0.211,0.116,0.075,�k,5.8,�L
2022/07/07,11:40,0.149,0.139,0.219,0.208,0.211,0.117,0.077,�k,6.8,�L
2022/07/07,11:50,0.148,0.138,0.220,0.211,0.213,0.115,0.075,�k,6.6,�L
2022/07/07,12:00,0.149,0.138,0.222,0.212,0.210,0.115,0.075,�k,6.8,�L
2022/07/07,12:10,0.148,0.139,0.219,0.210,0.210,0.117,0.076,�k,6.1,�L
2022/07/07,12:20,0.149,0.138,0.220,0.211,0.212,0.116,0.076,�k,5.5,�L
2022/07/07,12:30,0.149,0.138,0.221,0.212,0.210,0.116,0.076,�k�k��,5.4,�L
2022/07/07,12:40,0.148,0.139,0.218,0.209,0.211,0.117,0.076,�k,5.5,�L
2022/07/07,12:50,0.150,0.138,0.221,0.212,0.213,0.116,0.075,�k�k��,5.7,�L
2022/07/07,13:00,0.148,0.138,0.221,0.211,0.210,0.116,0.075,�k�k��,5.8,�L
2022/07/07,13:10,0.148,0.139,0.219,0.210,0.210,0.116,0.075,�k,5.9,�L
2022/07/07,13:20,0.149,0.138,0.220,0.211,0.213,0.116,0.075,�k,5.6,�L
2022/07/07,13:30,0.148,0.139,0.220,0.212,0.212,0.115,0.075,�k,5.1,��
2022/07/07,13:40,0.147,0.138,0.218,0.211,0.209,0.116,0.076,�k,4.1,��
2022/07/07,13:50,0.150,0.137,0.220,0.213,0.212,0.117,0.076,�k�k��,5.7,��
2022/07/07,14:00,0.149,0.137,0.222,0.212,0.212,0.116,0.075,�k,4.3,��
2022/07/07,14:10,0.148,0.139,0.220,0.210,0.210,0.116,0.076,�k,4.5,��
2022/07/07,14:20,0.150,0.137,0.219,0.210,0.209,0.117,0.075,�k,5.4,��
2022/07/07,14:30,0.148,0.137,0.221,0.212,0.213,0.116,0.075,�k,4.6,��
2022/07/07,14:40,0.149,0.138,0.218,0.211,0.212,0.116,0.074,�k,3.1,��
2022/07/07,14:50,0.150,0.137,0.220,0.209,0.210,0.117,0.075,�k�k��,4.2,��
2022/07/07,15:00,0.149,0.137,0.222,0.213,0.210,0.117,0.076,�k�k��,4.6,��
2022/07/07,15:10,0.148,0.138,0.219,0.211,0.212,0.115,0.075,�k�k��,4.6,��
2022/07/07,15:20,0.150,0.138,0.219,0.209,0.211,0.116,0.075,�k�k��,4.9,��
2022/07/07,15:30,0.149,0.137,0.222,0.213,0.210,0.117,0.076,�k�k��,4.8,��
2022/07/07,15:40,0.149,0.138,0.220,0.213,0.214,0.116,0.075,�k��,5.2,��
2022/07/07,15:50,0.150,0.138,0.220,0.210,0.211,0.116,0.075,�k��,5.7,��
2022/07/07,16:00,0.149,0.137,0.221,0.212,0.210,0.117,0.076,�k�k��,5.1,��
2022/07/07,16:10,0.149,0.138,0.219,0.212,0.213,0.117,0.075,�k�k��,4.8,��
2022/07/07,16:20,0.150,0.139,0.219,0.210,0.212,0.115,0.074,�k�k��,4.9,��
2022/07/07,16:30,0.149,0.138,0.221,0.212,0.209,0.117,0.075,�k�k��,4.7,��
2022/07/07,16:40,0.148,0.139,0.220,0.213,0.211,0.117,0.075,�k�k��,3.7,��
2022/07/07,16:50,0.150,0.138,0.218,0.212,0.213,0.117,0.075,�k,4.1,��
2022/07/07,17:00,0.149,0.138,0.221,0.211,0.211,0.117,0.076,�k�k��,4.5,��
2022/07/07,17:10,0.149,0.138,0.222,0.213,0.209,0.117,0.075,�k�k��,3.5,��
2022/07/07,17:20,0.150,0.139,0.220,0.212,0.214,0.117,0.075,�k,4.7,��
2022/07/07,17:30,0.148,0.137,0.222,0.211,0.212,0.116,0.074,�k,4.7,��
2022/07/07,17:40,0.150,0.139,0.222,0.214,0.211,0.117,0.076,�k,4.4,��
2022/07/07,17:50,0.151,0.138,0.219,0.212,0.214,0.116,0.075,�k�k��,5.1,��
2022/07/07,18:00,0.148,0.138,0.222,0.211,0.213,0.117,0.075,�k�k��,4.5,�L
2022/07/07,18:10,0.150,0.138,0.222,0.214,0.210,0.117,0.076,�k�k��,4.5,�L
2022/07/07,18:20,0.150,0.137,0.220,0.212,0.212,0.118,0.075,�k�k��,4.3,�L
2022/07/07,18:30,0.149,0.139,0.221,0.213,0.212,0.116,0.075,�k�k��,4.2,��
2022/07/07,18:40,0.150,0.139,0.221,0.213,0.211,0.117,0.076,�k�k��,4.5,��
2022/07/07,18:50,0.149,0.139,0.220,0.211,0.213,0.117,0.075,�k�k��,4.7,�L
2022/07/07,19:00,0.149,0.139,0.222,0.212,0.213,0.117,0.075,�k�k��,4.5,��
2022/07/07,19:10,0.150,0.138,0.221,0.212,0.213,0.117,0.076,�k�k��,4.2,��
2022/07/07,19:20,0.149,0.138,0.222,0.211,0.213,0.116,0.075,�k,4.9,��
2022/07/07,19:30,0.150,0.139,0.221,0.213,0.211,0.117,0.075,�k�k��,4.3,��
2022/07/07,19:40,0.150,0.139,0.221,0.211,0.214,0.117,0.075,�k�k��,4.9,��
2022/07/07,19:50,0.149,0.138,0.221,0.212,0.213,0.117,0.076,�k�k��,5.7,��
2022/07/07,20:00,0.149,0.138,0.221,0.212,0.210,0.117,0.075,�k�k��,5.4,��
2022/07/07,20:10,0.149,0.138,0.222,0.212,0.213,0.117,0.075,�k�k��,5.1,��
2022/07/07,20:20,0.149,0.139,0.221,0.212,0.212,0.117,0.076,�k�k��,5.7,��
2022/07/07,20:30,0.150,0.139,0.221,0.213,0.212,0.118,0.076,�k��,3.9,��
2022/07/07,20:40,0.149,0.138,0.221,0.212,0.213,0.117,0.075,�k�k��,5.4,��
2022/07/07,20:50,0.150,0.138,0.220,0.213,0.210,0.117,0.075,�k�k��,4.6,��
2022/07/07,21:00,0.150,0.139,0.223,0.212,0.213,0.117,0.075,�k�k��,4.8,��
2022/07/07,21:10,0.149,0.138,0.220,0.213,0.213,0.117,0.075,�k�k��,5.0,��
2022/07/07,21:20,0.151,0.139,0.221,0.212,0.211,0.117,0.076,�k�k��,4.6,��
2022/07/07,21:30,0.149,0.139,0.222,0.212,0.215,0.118,0.076,�k�k��,4.3,�L
2022/07/07,21:40,0.149,0.137,0.220,0.214,0.212,0.117,0.075,�k�k��,5.8,�L
2022/07/07,21:50,0.151,0.139,0.223,0.211,0.211,0.117,0.076,�k,5.3,�L
2022/07/07,22:00,0.149,0.139,0.221,0.213,0.214,0.118,0.076,�k,6.0,�L
2022/07/07,22:10,0.150,0.138,0.221,0.212,0.211,0.117,0.076,�k�k��,4.4,�L
2022/07/07,22:20,0.150,0.139,0.222,0.211,0.212,0.118,0.075,�k,4.1,�L
2022/07/07,22:30,0.150,0.138,0.220,0.214,0.213,0.118,0.075,�k�k��,4.0,�L
2022/07/07,22:40,0.150,0.139,0.222,0.211,0.211,0.116,0.076,�k�k��,5.1,�L
2022/07/07,22:50,0.148,0.140,0.221,0.213,0.212,0.118,0.076,�k�k��,5.1,�L
2022/07/07,23:00,0.149,0.138,0.221,0.213,0.213,0.118,0.076,�k�k��,4.8,�L
2022/07/07,23:10,0.150,0.138,0.221,0.211,0.210,0.117,0.076,�k�k��,4.7,�L
2022/07/07,23:20,0.148,0.138,0.220,0.213,0.214,0.117,0.076,�k�k��,5.4,�L
2022/07/07,23:30,0.150,0.139,0.223,0.212,0.212,0.117,0.076,�k�k��,6.0,�L
2022/07/07,23:40,0.149,0.138,0.221,0.212,0.211,0.117,0.075,�k�k��,5.1,��
2022/07/07,23:50,0.149,0.137,0.222,0.213,0.214,0.118,0.075,�k�k��,4.4,�L
